This is the latest recevied weather packets stored in our database for station/object K6CED. If no packets are shown the sender has not sent any weather packets the latest 10 day(s).
| Time | Temp. | Humidity | Pressure | Rain* | Wind** | Luminosity | Snow |
|---|---|---|---|---|---|---|---|
| 1777725536 | 12.78° C | 98% | 1016.1 hPa | 0 mm | - | 0 W/m² | - |
| 1777725233 | 12.78° C | 98% | 1016.2 hPa | 0 mm | - | 0 W/m² | - |
| 1777724930 | 12.78° C | 98% | 1015.9 hPa | 0 mm | - | 0 W/m² | - |
| 1777724625 | 12.78° C | 98% | 1015.9 hPa | 0 mm | - | 0 W/m² | - |
| 1777724324 | 12.78° C | 98% | 1015.9 hPa | 0 mm | - | 0 W/m² | - |
| 1777724021 | 12.78° C | 98% | 1015.7 hPa | 0 mm | - | 0 W/m² | - |
| 1777723719 | 12.78° C | 98% | 1015.9 hPa | 0 mm | - | 0 W/m² | - |
| 1777723414 | 12.78° C | 98% | 1015.9 hPa | 0 mm | - | 0 W/m² | - |
| 1777723112 | 12.22° C | 98% | 1015.7 hPa | 0 mm | - | 0 W/m² | - |
| 1777722809 | 12.22° C | 98% | 1015.6 hPa | 0 mm | - | 0 W/m² | - |
| 1777722506 | 12.22° C | 98% | 1015.7 hPa | 0 mm | - | 0 W/m² | - |
| 1777722203 | 12.22° C | 98% | 1015.7 hPa | 0 mm | - | 0 W/m² | - |
| 1777721899 | 12.22° C | 97% | 1015.7 hPa | 0 mm | - | 0 W/m² | - |
| 1777721597 | 12.22° C | 97% | 1015.6 hPa | 0 mm | - | 0 W/m² | - |
| 1777721295 | 11.67° C | 97% | 1015.7 hPa | 0 mm | - | 0 W/m² | - |
| 1777720992 | 11.67° C | 97% | 1015.6 hPa | 0 mm | - | 0 W/m² | - |
| 1777720689 | 11.67° C | 97% | 1015.6 hPa | 0 mm | - | 0 W/m² | - |
| 1777720387 | 11.67° C | 97% | 1015.7 hPa | 0 mm | - | 0 W/m² | - |
| 1777720084 | 11.11° C | 96% | 1015.5 hPa | 0 mm | - | 0 W/m² | - |
| 1777719782 | 11.11° C | 96% | 1015.5 hPa | 0 mm | - | 0 W/m² | - |
| 1777719480 | 11.11° C | 96% | 1015.5 hPa | 0 mm | - | 0 W/m² | - |
| 1777719176 | 11.11° C | 96% | 1015.2 hPa | 0 mm | - | 0 W/m² | - |
| 1777718874 | 10.56° C | 96% | 1015.3 hPa | 0 mm | - | 0 W/m² | - |
| 1777718571 | 11.11° C | 96% | 1015.3 hPa | 0 mm | - | 0 W/m² | - |
| 1777718268 | 10.56° C | 96% | 1015.3 hPa | 0 mm | - | 0 W/m² | - |
* Rain latest hour (hover to see other rain measurements)
** Current wind speed in m/s (hover to see current wind gust speed)